Zurück zum Katalog

STARLINK-5347

AktivKommunikationVLEO
NORAD 57137·PAYLOAD·🇺🇸 United States

Gestartet Jun 23, 2023 von Cape Canaveral Space Force Station

Loading…

Nächste Überflüge (nächste 24 Stunden)

TLE

AktuellSource: CelesTrak SupGP

Epoche: Sep 15, 2026, 02:27 UTC

1 57137C 23090AN  26258.10256944 -.00006725  00000+0 -24361-3 0  2589
2 57137  43.0017 273.3011 0001232 328.9539 102.1878 15.27579125    16

Verfolge STARLINK-5347 in Echtzeit mit AllMySat

Download on the App Store